When you browse on this site, cookies collect data to enhance your experience and personalize the content and advertising you see.
Visit our Privacy Policy to learn more. By continuing to use the site, you agree to this use of cookies and data.

Hourly Weather Wlora

Today, 8 August, Saturday

Time Temperature Precipitation Wind Pressure Humidity
00:00 +24°C° 0.1 mm 3 mps 758 mmHg 76%
01:00 +24°C° 0 mm 3 mps 758 mmHg 75%
02:00 +24°C° 0.2 mm 3 mps 758 mmHg 75%
03:00 +24°C° 0.2 mm 3 mps 758 mmHg 74%
04:00 +24°C° 0.2 mm 2 mps 758 mmHg 74%
05:00 +25°C° 0 mm 2 mps 758 mmHg 70%
06:00 +26°C° 0 mm 2 mps 758 mmHg 67%
07:00 +27°C° 0 mm 2 mps 758 mmHg 63%
08:00 +28°C° 0.1 mm 2 mps 758 mmHg 60%
09:00 +29°C° 0.1 mm 2 mps 758 mmHg 57%
10:00 +30°C° 0.1 mm 2 mps 758 mmHg 54%
11:00 +30°C° 0.1 mm 3 mps 758 mmHg 54%
12:00 +30°C° 0.1 mm 3 mps 758 mmHg 54%
13:00 +32°C° 0.1 mm 4 mps 757 mmHg 54%
14:00 +30°C° 0.2 mm 5 mps 757 mmHg 56%
15:00 +30°C° 0.2 mm 5 mps 757 mmHg 58%
16:00 +29°C° 0.2 mm 5 mps 757 mmHg 60%
17:00 +28°C° 0.1 mm 4 mps 757 mmHg 65%
18:00 +28°C° 0.1 mm 4 mps 757 mmHg 70%
19:00 +27°C° 0.1 mm 3 mps 757 mmHg 75%
20:00 +26°C° 0 mm 3 mps 757 mmHg 74%
21:00 +26°C° 0 mm 3 mps 757 mmHg 74%
22:00 +26°C° 0 mm 3 mps 758 mmHg 73%
23:00 +26°C° 0 mm 3 mps 757 mmHg 69%

Tomorrow, 9 August, Sunday

Time Temperature Precipitation Wind Pressure Humidity
00:00 +26°C° 0 mm 4 mps 757 mmHg 66%
01:00 +26°C° 0 mm 5 mps 757 mmHg 62%
02:00 +26°C° 0 mm 4 mps 757 mmHg 63%
03:00 +25°C° 0 mm 3 mps 757 mmHg 64%
04:00 +25°C° 0 mm 3 mps 756 mmHg 65%
05:00 +26°C° 0 mm 3 mps 757 mmHg 62%
06:00 +27°C° 0 mm 3 mps 757 mmHg 59%
07:00 +28°C° 0 mm 3 mps 757 mmHg 56%
08:00 +30°C° 0 mm 3 mps 757 mmHg 50%
09:00 +33°C° 0 mm 3 mps 757 mmHg 44%
10:00 +35°C° 0 mm 2 mps 758 mmHg 38%
11:00 +35°C° 0 mm 3 mps 757 mmHg 38%
12:00 +35°C° 0 mm 4 mps 757 mmHg 38%
13:00 +35°C° 0 mm 5 mps 757 mmHg 38%
14:00 +35°C° 0 mm 5 mps 757 mmHg 40%
15:00 +35°C° 0 mm 6 mps 757 mmHg 42%
16:00 +34°C° 0 mm 6 mps 757 mmHg 44%
17:00 +33°C° 0 mm 6 mps 757 mmHg 50%
18:00 +30°C° 0 mm 5 mps 757 mmHg 57%
19:00 +28°C° 0 mm 5 mps 757 mmHg 64%
20:00 +28°C° 0 mm 4 mps 757 mmHg 64%
21:00 +28°C° 0 mm 4 mps 757 mmHg 65%
22:00 +27°C° 0 mm 3 mps 758 mmHg 66%
23:00 +27°C° 0 mm 3 mps 758 mmHg 64%

Day after tomorrow, 10 August, Monday

Time Temperature Precipitation Wind Pressure Humidity
00:00 +27°C° 0 mm 3 mps 758 mmHg 61%
01:00 +27°C° 0 mm 2 mps 758 mmHg 59%
02:00 +27°C° 0 mm 2 mps 758 mmHg 58%
03:00 +27°C° 0 mm 2 mps 758 mmHg 57%
04:00 +27°C° 0 mm 2 mps 758 mmHg 57%
05:00 +28°C° 0 mm 2 mps 758 mmHg 55%
06:00 +29°C° 0 mm 2 mps 758 mmHg 53%
07:00 +30°C° 0 mm 1 mps 758 mmHg 51%
08:00 +31°C° 0 mm 1 mps 758 mmHg 47%
09:00 +32°C° 0 mm 1 mps 758 mmHg 44%
10:00 +34°C° 0 mm 2 mps 759 mmHg 41%
11:00 +35°C° 0 mm 2 mps 758 mmHg 41%
12:00 +35°C° 0 mm 2 mps 758 mmHg 41%
13:00 +35°C° 0 mm 2 mps 758 mmHg 40%
14:00 +35°C° 0 mm 2 mps 758 mmHg 42%
15:00 +34°C° 0 mm 3 mps 758 mmHg 44%
16:00 +34°C° 0 mm 3 mps 758 mmHg 45%
17:00 +32°C° 0 mm 4 mps 758 mmHg 50%
18:00 +30°C° 0 mm 4 mps 758 mmHg 55%
19:00 +28°C° 0 mm 4 mps 758 mmHg 60%
20:00 +28°C° 0 mm 4 mps 759 mmHg 61%
21:00 +28°C° 0 mm 4 mps 759 mmHg 62%
22:00 +27°C° 0 mm 3 mps 759 mmHg 64%
23:00 +27°C° 0 mm 3 mps 759 mmHg 63%

11 August, Tuesday

Time Temperature Precipitation Wind Pressure Humidity
00:00 +27°C° 0 mm 3 mps 759 mmHg 62%
01:00 +27°C° 0 mm 2 mps 759 mmHg 61%
02:00 +27°C° 0 mm 3 mps 759 mmHg 62%
03:00 +26°C° 0 mm 3 mps 759 mmHg 64%
04:00 +26°C° 0 mm 4 mps 759 mmHg 66%
05:00 +27°C° 0 mm 4 mps 759 mmHg 63%
06:00 +28°C° 0 mm 4 mps 759 mmHg 59%
07:00 +29°C° 0 mm 3 mps 760 mmHg 56%
08:00 +30°C° 0 mm 3 mps 760 mmHg 51%
09:00 +33°C° 0 mm 3 mps 760 mmHg 46%
10:00 +34°C° 0 mm 3 mps 760 mmHg 41%
11:00 +34°C° 0 mm 3 mps 760 mmHg 41%
12:00 +34°C° 0 mm 4 mps 760 mmHg 42%
13:00 +34°C° 0 mm 5 mps 759 mmHg 42%
14:00 +34°C° 0 mm 5 mps 759 mmHg 44%
15:00 +34°C° 0 mm 5 mps 759 mmHg 45%
16:00 +33°C° 0 mm 5 mps 759 mmHg 46%
17:00 +30°C° 0 mm 4 mps 759 mmHg 53%
18:00 +29°C° 0 mm 4 mps 759 mmHg 59%
19:00 +27°C° 0 mm 3 mps 759 mmHg 66%
20:00 +27°C° 0 mm 3 mps 759 mmHg 65%
21:00 +26°C° 0 mm 3 mps 759 mmHg 65%
22:00 +26°C° 0 mm 2 mps 759 mmHg 65%
23:00 +26°C° 0 mm 3 mps 759 mmHg 66%

12 August, Wednesday

Time Temperature Precipitation Wind Pressure Humidity
00:00 +26°C° 0 mm 3 mps 759 mmHg 66%
01:00 +25°C° 0 mm 3 mps 759 mmHg 66%
02:00 +25°C° 0 mm 3 mps 759 mmHg 65%
03:00 +25°C° 0 mm 4 mps 759 mmHg 65%
04:00 +25°C° 0 mm 4 mps 758 mmHg 64%
05:00 +26°C° 0 mm 4 mps 759 mmHg 60%
06:00 +28°C° 0 mm 4 mps 759 mmHg 56%
07:00 +29°C° 0 mm 4 mps 759 mmHg 52%
08:00 +30°C° 0 mm 4 mps 759 mmHg 49%
09:00 +32°C° 0 mm 4 mps 759 mmHg 47%
10:00 +34°C° 0 mm 4 mps 759 mmHg 44%
11:00 +34°C° 0 mm 5 mps 759 mmHg 46%
12:00 +34°C° 0 mm 6 mps 759 mmHg 47%
13:00 +34°C° 0 mm 6 mps 759 mmHg 48%
14:00 +34°C° 0 mm 6 mps 758 mmHg 51%
15:00 +33°C° 0 mm 6 mps 758 mmHg 54%
16:00 +33°C° 0 mm 6 mps 758 mmHg 57%
17:00 +30°C° 0 mm 5 mps 758 mmHg 62%
18:00 +29°C° 0 mm 5 mps 758 mmHg 67%
19:00 +28°C° 0 mm 4 mps 758 mmHg 72%
20:00 +28°C° 0 mm 4 mps 758 mmHg 72%
21:00 +27°C° 0 mm 4 mps 759 mmHg 72%
22:00 +27°C° 0 mm 4 mps 759 mmHg 72%
23:00 +27°C° 0 mm 4 mps 759 mmHg 72%

13 August, Thursday

Time Temperature Precipitation Wind Pressure Humidity
00:00 +27°C° 0 mm 4 mps 759 mmHg 71%
01:00 +27°C° 0 mm 4 mps 759 mmHg 71%
02:00 +26°C° 0 mm 4 mps 758 mmHg 72%
03:00 +26°C° 0 mm 4 mps 758 mmHg 73%
04:00 +26°C° 0 mm 5 mps 758 mmHg 74%
05:00 +27°C° 0 mm 4 mps 758 mmHg 70%
06:00 +28°C° 0 mm 4 mps 758 mmHg 65%
07:00 +29°C° 0 mm 4 mps 759 mmHg 61%
08:00 +32°C° 0 mm 4 mps 759 mmHg 56%
09:00 +33°C° 0 mm 4 mps 759 mmHg 50%
10:00 +35°C° 0 mm 4 mps 759 mmHg 45%
11:00 +35°C° 0 mm 5 mps 759 mmHg 44%
12:00 +36°C° 0 mm 5 mps 759 mmHg 44%
13:00 +36°C° 0 mm 6 mps 758 mmHg 43%
14:00 +36°C° 0 mm 6 mps 758 mmHg 44%
15:00 +35°C° 0 mm 6 mps 758 mmHg 45%
16:00 +34°C° 0 mm 6 mps 758 mmHg 45%
17:00 +33°C° 0 mm 6 mps 758 mmHg 51%
18:00 +30°C° 0 mm 5 mps 758 mmHg 56%
19:00 +29°C° 0 mm 5 mps 758 mmHg 61%
20:00 +29°C° 0 mm 4 mps 759 mmHg 61%
21:00 +28°C° 0 mm 4 mps 759 mmHg 62%
22:00 +28°C° 0 mm 4 mps 759 mmHg 63%
23:00 +28°C° 0 mm 4 mps 759 mmHg 62%
Show more